owner,sensor,date,latitude,longitude,vertical_datum,sea_water_practical_salinity,qcFlag 
NERRS,ioos:station:NOAA.NERRS:rkblhwq:1,2014-05-01T00:45:00Z,26.0257,-81.7332,0.98,34.8,1111122 
NERRS,ioos:station:NOAA.NERRS:rkblhwq:1,2014-05-01T01:45:00Z,26.0257,-81.7332,0.85,35.0,1111122 
NERRS,ioos:station:NOAA.NERRS:rkblhwq:1,2014-05-01T02:45:00Z,26.0257,-81.7332,0.79,35.0,1111122 
NERRS,ioos:station:NOAA.NERRS:rkblhwq:1,2014-05-01T03:45:00Z,26.0257,-81.7332,0.88,34.6,1111122 
NERRS,ioos:station:NOAA.NERRS:rkblhwq:1,2014-05-01T04:45:00Z,26.0257,-81.7332,1.04,34.8,1111122 
NERRS,ioos:station:NOAA.NERRS:rkblhwq:1,2014-05-01T06:45:00Z,26.0257,-81.7332,1.41,34.8,1111122 
NERRS,ioos:station:NOAA.NERRS:rkblhwq:1,2014-05-01T07:45:00Z,26.0257,-81.7332,1.53,34.8,1111122 
NERRS,ioos:station:NOAA.NERRS:rkblhwq:1,2014-05-01T08:45:00Z,26.0257,-81.7332,1.56,34.8,1111122 
NERRS,ioos:station:NOAA.NERRS:rkblhwq:1,2014-05-01T09:45:00Z,26.0257,-81.7332,1.46,34.8,1111122 
NERRS,ioos:station:NOAA.NERRS:rkblhwq:1,2014-05-01T10:45:00Z,26.0257,-81.7332,1.35,34.8,1111122 
NERRS,ioos:station:NOAA.NERRS:rkblhwq:1,2014-05-01T11:45:00Z,26.0257,-81.7332,1.26,34.9,1111122 
NERRS,ioos:station:NOAA.NERRS:rkblhwq:1,2014-05-01T12:45:00Z,26.0257,-81.7332,1.2,34.9,1111122 
NERRS,ioos:station:NOAA.NERRS:rkblhwq:1,2014-05-01T13:45:00Z,26.0257,-81.7332,1.18,34.7,1111122 
NERRS,ioos:station:NOAA.NERRS:rkblhwq:1,2014-05-01T14:45:00Z,26.0257,-81.7332,1.27,34.8,1111122 
NERRS,ioos:station:NOAA.NERRS:rkblhwq:1,2014-05-01T15:45:00Z,26.0257,-81.7332,1.42,34.8,1111122 
NERRS,ioos:station:NOAA.NERRS:rkblhwq:1,2014-05-01T16:45:00Z,26.0257,-81.7332,1.57,34.8,1111122 
NERRS,ioos:station:NOAA.NERRS:rkblhwq:1,2014-05-01T17:45:00Z,26.0257,-81.7332,1.7,34.8,1111122 
NERRS,ioos:station:NOAA.NERRS:rkblhwq:1,2014-05-01T18:45:00Z,26.0257,-81.7332,1.77,34.8,1111122 
NERRS,ioos:station:NOAA.NERRS:rkblhwq:1,2014-05-01T19:45:00Z,26.0257,-81.7332,1.78,34.8,1111122 
NERRS,ioos:station:NOAA.NERRS:rkblhwq:1,2014-05-01T20:45:00Z,26.0257,-81.7332,1.7,34.8,1111122 
NERRS,ioos:station:NOAA.NERRS:rkblhwq:1,2014-05-01T22:45:00Z,26.0257,-81.7332,1.43,34.8,1111122 
NERRS,ioos:station:NOAA.NERRS:rkblhwq:1,2014-05-01T23:45:00Z,26.0257,-81.7332,1.26,34.8,1111122 
NERRS,ioos:station:NOAA.NERRS:rkblhwq:1,2014-05-02T00:45:00Z,26.0257,-81.7332,1.1,35.0,1111122 
NERRS,ioos:station:NOAA.NERRS:rkblhwq:1,2014-05-02T01:45:00Z,26.0257,-81.7332,0.97,34.7,1111122 
NERRS,ioos:station:NOAA.NERRS:rkblhwq:1,2014-05-02T02:45:00Z,26.0257,-81.7332,0.86,35.1,1111122 
NERRS,ioos:station:NOAA.NERRS:rkblhwq:1,2014-05-02T03:45:00Z,26.0257,-81.7332,0.87,34.6,1111122 
NERRS,ioos:station:NOAA.NERRS:rkblhwq:1,2014-05-02T04:45:00Z,26.0257,-81.7332,0.99,34.7,1111122 
NERRS,ioos:station:NOAA.NERRS:rkblhwq:1,2014-05-02T05:45:00Z,26.0257,-81.7332,1.15,34.9,1111122 
NERRS,ioos:station:NOAA.NERRS:rkblhwq:1,2014-05-02T06:45:00Z,26.0257,-81.7332,1.32,34.9,1111122 
NERRS,ioos:station:NOAA.NERRS:rkblhwq:1,2014-05-02T07:45:00Z,26.0257,-81.7332,1.48,34.8,1111122 
NERRS,ioos:station:NOAA.NERRS:rkblhwq:1,2014-05-02T08:45:00Z,26.0257,-81.7332,1.57,34.8,1111122 
NERRS,ioos:station:NOAA.NERRS:rkblhwq:1,2014-05-02T09:45:00Z,26.0257,-81.7332,1.55,34.8,1111122 
NERRS,ioos:station:NOAA.NERRS:rkblhwq:1,2014-05-02T11:45:00Z,26.0257,-81.7332,1.37,34.9,1111122 
NERRS,ioos:station:NOAA.NERRS:rkblhwq:1,2014-05-02T12:45:00Z,26.0257,-81.7332,1.28,34.9,1111122 
NERRS,ioos:station:NOAA.NERRS:rkblhwq:1,2014-05-02T13:45:00Z,26.0257,-81.7332,1.23,34.9,1111122 
NERRS,ioos:station:NOAA.NERRS:rkblhwq:1,2014-05-02T14:45:00Z,26.0257,-81.7332,1.27,34.8,1111122 
NERRS,ioos:station:NOAA.NERRS:rkblhwq:1,2014-05-02T15:45:00Z,26.0257,-81.7332,1.39,34.9,1111122 
NERRS,ioos:station:NOAA.NERRS:rkblhwq:1,2014-05-02T16:45:00Z,26.0257,-81.7332,1.53,34.9,1111122 
NERRS,ioos:station:NOAA.NERRS:rkblhwq:1,2014-05-02T17:45:00Z,26.0257,-81.7332,1.66,34.9,1111122 
NERRS,ioos:station:NOAA.NERRS:rkblhwq:1,2014-05-02T18:45:00Z,26.0257,-81.7332,1.74,34.9,1111122 
NERRS,ioos:station:NOAA.NERRS:rkblhwq:1,2014-05-02T19:45:00Z,26.0257,-81.7332,1.77,34.8,1111122 
NERRS,ioos:station:NOAA.NERRS:rkblhwq:1,2014-05-02T20:45:00Z,26.0257,-81.7332,1.79,34.8,1111122 
NERRS,ioos:station:NOAA.NERRS:rkblhwq:1,2014-05-02T21:45:00Z,26.0257,-81.7332,1.73,34.9,1111122 
NERRS,ioos:station:NOAA.NERRS:rkblhwq:1,2014-05-02T22:45:00Z,26.0257,-81.7332,1.63,34.9,1111122 
NERRS,ioos:station:NOAA.NERRS:rkblhwq:1,2014-05-02T23:45:00Z,26.0257,-81.7332,1.48,34.9,1111122 
NERRS,ioos:station:NOAA.NERRS:rkblhwq:1,2014-05-03T00:45:00Z,26.0257,-81.7332,1.32,34.9,1111122 
NERRS,ioos:station:NOAA.NERRS:rkblhwq:1,2014-05-03T01:45:00Z,26.0257,-81.7332,1.17,35.1,1111122 
NERRS,ioos:station:NOAA.NERRS:rkblhwq:1,2014-05-03T02:45:00Z,26.0257,-81.7332,1.02,34.8,1111122 
NERRS,ioos:station:NOAA.NERRS:rkblhwq:1,2014-05-03T03:45:00Z,26.0257,-81.7332,0.93,35.1,1111122 
NERRS,ioos:station:NOAA.NERRS:rkblhwq:1,2014-05-03T04:45:00Z,26.0257,-81.7332,0.98,34.8,1111122 
NERRS,ioos:station:NOAA.NERRS:rkblhwq:1,2014-05-03T05:45:00Z,26.0257,-81.7332,1.1,34.9,1111122 
NERRS,ioos:station:NOAA.NERRS:rkblhwq:1,2014-05-03T06:45:00Z,26.0257,-81.7332,1.25,34.9,1111122 
NERRS,ioos:station:NOAA.NERRS:rkblhwq:1,2014-05-03T07:45:00Z,26.0257,-81.7332,1.4,34.9,1111122 
NERRS,ioos:station:NOAA.NERRS:rkblhwq:1,2014-05-03T08:45:00Z,26.0257,-81.7332,1.52,34.9,1111122 
NERRS,ioos:station:NOAA.NERRS:rkblhwq:1,2014-05-03T09:45:00Z,26.0257,-81.7332,1.59,34.9,1111122 
NERRS,ioos:station:NOAA.NERRS:rkblhwq:1,2014-05-03T10:45:00Z,26.0257,-81.7332,1.53,34.9,1111122 
NERRS,ioos:station:NOAA.NERRS:rkblhwq:1,2014-05-03T11:45:00Z,26.0257,-81.7332,1.45,34.9,1111122 
NERRS,ioos:station:NOAA.NERRS:rkblhwq:1,2014-05-03T12:45:00Z,26.0257,-81.7332,1.43,34.9,1111122 
NERRS,ioos:station:NOAA.NERRS:rkblhwq:1,2014-05-03T13:45:00Z,26.0257,-81.7332,1.36,34.9,1111122 
NERRS,ioos:station:NOAA.NERRS:rkblhwq:1,2014-05-03T14:45:00Z,26.0257,-81.7332,1.36,34.9,1111122 
NERRS,ioos:station:NOAA.NERRS:rkblhwq:1,2014-05-03T15:45:00Z,26.0257,-81.7332,1.4,34.9,1111122 
NERRS,ioos:station:NOAA.NERRS:rkblhwq:1,2014-05-03T16:45:00Z,26.0257,-81.7332,1.5,34.9,1111122 
NERRS,ioos:station:NOAA.NERRS:rkblhwq:1,2014-05-03T17:45:00Z,26.0257,-81.7332,1.62,34.9,1111122 
NERRS,ioos:station:NOAA.NERRS:rkblhwq:1,2014-05-03T18:45:00Z,26.0257,-81.7332,1.72,34.9,1111122 
NERRS,ioos:station:NOAA.NERRS:rkblhwq:1,2014-05-03T19:45:00Z,26.0257,-81.7332,1.78,34.9,1111122 
NERRS,ioos:station:NOAA.NERRS:rkblhwq:1,2014-05-03T20:45:00Z,26.0257,-81.7332,1.77,34.9,1111122 
NERRS,ioos:station:NOAA.NERRS:rkblhwq:1,2014-05-03T21:45:00Z,26.0257,-81.7332,1.72,34.9,1111122 
NERRS,ioos:station:NOAA.NERRS:rkblhwq:1,2014-05-03T22:45:00Z,26.0257,-81.7332,1.62,34.9,1111122 
NERRS,ioos:station:NOAA.NERRS:rkblhwq:1,2014-05-03T23:45:00Z,26.0257,-81.7332,1.5,34.9,1111122 
NERRS,ioos:station:NOAA.NERRS:rkblhwq:1,2014-05-04T00:45:00Z,26.0257,-81.7332,1.35,35.0,1111122 
NERRS,ioos:station:NOAA.NERRS:rkblhwq:1,2014-05-04T01:45:00Z,26.0257,-81.7332,1.2,35.1,1111122 
NERRS,ioos:station:NOAA.NERRS:rkblhwq:1,2014-05-04T02:45:00Z,26.0257,-81.7332,1.06,35.0,1111122 
NERRS,ioos:station:NOAA.NERRS:rkblhwq:1,2014-05-04T03:45:00Z,26.0257,-81.7332,0.96,35.3,1111122 
NERRS,ioos:station:NOAA.NERRS:rkblhwq:1,2014-05-04T04:45:00Z,26.0257,-81.7332,0.91,35.2,1111122 
NERRS,ioos:station:NOAA.NERRS:rkblhwq:1,2014-05-04T06:45:00Z,26.0257,-81.7332,1.13,35.0,1111122 
NERRS,ioos:station:NOAA.NERRS:rkblhwq:1,2014-05-04T07:45:00Z,26.0257,-81.7332,1.26,35.0,1111122 
NERRS,ioos:station:NOAA.NERRS:rkblhwq:1,2014-05-04T08:45:00Z,26.0257,-81.7332,1.36,35.0,1111122 
NERRS,ioos:station:NOAA.NERRS:rkblhwq:1,2014-05-04T09:45:00Z,26.0257,-81.7332,1.41,35.0,1111122 
NERRS,ioos:station:NOAA.NERRS:rkblhwq:1,2014-05-04T10:45:00Z,26.0257,-81.7332,1.41,35.0,1111122 
NERRS,ioos:station:NOAA.NERRS:rkblhwq:1,2014-05-04T11:45:00Z,26.0257,-81.7332,1.33,35.0,1111122 
NERRS,ioos:station:NOAA.NERRS:rkblhwq:1,2014-05-04T12:45:00Z,26.0257,-81.7332,1.25,35.1,1111122 
NERRS,ioos:station:NOAA.NERRS:rkblhwq:1,2014-05-04T13:45:00Z,26.0257,-81.7332,1.18,35.1,1111122 
NERRS,ioos:station:NOAA.NERRS:rkblhwq:1,2014-05-04T14:45:00Z,26.0257,-81.7332,1.13,35.1,1111122 
NERRS,ioos:station:NOAA.NERRS:rkblhwq:1,2014-05-04T15:45:00Z,26.0257,-81.7332,1.1,35.1,1111122 
NERRS,ioos:station:NOAA.NERRS:rkblhwq:1,2014-05-04T16:45:00Z,26.0257,-81.7332,1.14,34.9,1111122 
NERRS,ioos:station:NOAA.NERRS:rkblhwq:1,2014-05-04T17:45:00Z,26.0257,-81.7332,1.21,35.1,1111122 
NERRS,ioos:station:NOAA.NERRS:rkblhwq:1,2014-05-04T19:45:00Z,26.0257,-81.7332,1.4,35.1,1111122 
NERRS,ioos:station:NOAA.NERRS:rkblhwq:1,2014-05-04T20:45:00Z,26.0257,-81.7332,1.47,35.1,1111122 
NERRS,ioos:station:NOAA.NERRS:rkblhwq:1,2014-05-04T21:45:00Z,26.0257,-81.7332,1.51,35.1,1111122 
NERRS,ioos:station:NOAA.NERRS:rkblhwq:1,2014-05-04T22:45:00Z,26.0257,-81.7332,1.45,35.1,1111122 
NERRS,ioos:station:NOAA.NERRS:rkblhwq:1,2014-05-04T23:45:00Z,26.0257,-81.7332,1.35,35.2,1111122 
NERRS,ioos:station:NOAA.NERRS:rkblhwq:1,2014-05-05T00:45:00Z,26.0257,-81.7332,1.25,35.2,1111122 
NERRS,ioos:station:NOAA.NERRS:rkblhwq:1,2014-05-05T01:45:00Z,26.0257,-81.7332,1.14,35.3,1111122 
NERRS,ioos:station:NOAA.NERRS:rkblhwq:1,2014-05-05T02:45:00Z,26.0257,-81.7332,1.03,35.3,1111122 
NERRS,ioos:station:NOAA.NERRS:rkblhwq:1,2014-05-05T03:45:00Z,26.0257,-81.7332,0.94,35.4,1111122 
NERRS,ioos:station:NOAA.NERRS:rkblhwq:1,2014-05-05T04:45:00Z,26.0257,-81.7332,0.87,35.4,1111122 
NERRS,ioos:station:NOAA.NERRS:rkblhwq:1,2014-05-05T06:45:00Z,26.0257,-81.7332,0.99,35.0,1111122 
NERRS,ioos:station:NOAA.NERRS:rkblhwq:1,2014-05-05T07:45:00Z,26.0257,-81.7332,1.09,35.1,1111122 
NERRS,ioos:station:NOAA.NERRS:rkblhwq:1,2014-05-05T08:45:00Z,26.0257,-81.7332,1.22,35.1,1111122 
NERRS,ioos:station:NOAA.NERRS:rkblhwq:1,2014-05-05T09:45:00Z,26.0257,-81.7332,1.34,35.1,1111122 
NERRS,ioos:station:NOAA.NERRS:rkblhwq:1,2014-05-05T10:45:00Z,26.0257,-81.7332,1.44,35.1,1111122 
NERRS,ioos:station:NOAA.NERRS:rkblhwq:1,2014-05-05T11:45:00Z,26.0257,-81.7332,1.47,35.1,1111122 
NERRS,ioos:station:NOAA.NERRS:rkblhwq:1,2014-05-05T12:45:00Z,26.0257,-81.7332,1.4,35.1,1111122 
NERRS,ioos:station:NOAA.NERRS:rkblhwq:1,2014-05-05T13:45:00Z,26.0257,-81.7332,1.34,35.1,1111122 
NERRS,ioos:station:NOAA.NERRS:rkblhwq:1,2014-05-05T14:45:00Z,26.0257,-81.7332,1.28,35.2,1111122 
NERRS,ioos:station:NOAA.NERRS:rkblhwq:1,2014-05-05T15:45:00Z,26.0257,-81.7332,1.24,35.2,1111122 
NERRS,ioos:station:NOAA.NERRS:rkblhwq:1,2014-05-05T16:45:00Z,26.0257,-81.7332,1.25,35.1,1111122 
NERRS,ioos:station:NOAA.NERRS:rkblhwq:1,2014-05-05T17:45:00Z,26.0257,-81.7332,1.3,35.2,1111122 
NERRS,ioos:station:NOAA.NERRS:rkblhwq:1,2014-05-05T18:45:00Z,26.0257,-81.7332,1.37,35.2,1111122 
NERRS,ioos:station:NOAA.NERRS:rkblhwq:1,2014-05-05T19:45:00Z,26.0257,-81.7332,1.45,35.2,1111122 
NERRS,ioos:station:NOAA.NERRS:rkblhwq:1,2014-05-05T20:45:00Z,26.0257,-81.7332,1.51,35.2,1111122 
NERRS,ioos:station:NOAA.NERRS:rkblhwq:1,2014-05-05T21:45:00Z,26.0257,-81.7332,1.55,35.2,1111122 
NERRS,ioos:station:NOAA.NERRS:rkblhwq:1,2014-05-05T22:45:00Z,26.0257,-81.7332,1.55,35.2,1111122 
NERRS,ioos:station:NOAA.NERRS:rkblhwq:1,2014-05-05T23:45:00Z,26.0257,-81.7332,1.49,35.2,1111122 
NERRS,ioos:station:NOAA.NERRS:rkblhwq:1,2014-05-06T00:45:00Z,26.0257,-81.7332,1.42,35.2,1111122 
NERRS,ioos:station:NOAA.NERRS:rkblhwq:1,2014-05-06T01:45:00Z,26.0257,-81.7332,1.31,35.2,1111122 
NERRS,ioos:station:NOAA.NERRS:rkblhwq:1,2014-05-06T02:45:00Z,26.0257,-81.7332,1.21,35.2,1111122 
NERRS,ioos:station:NOAA.NERRS:rkblhwq:1,2014-05-06T03:45:00Z,26.0257,-81.7332,1.11,35.3,1111122 
NERRS,ioos:station:NOAA.NERRS:rkblhwq:1,2014-05-06T04:45:00Z,26.0257,-81.7332,1.01,35.4,1111122 
NERRS,ioos:station:NOAA.NERRS:rkblhwq:1,2014-05-06T06:45:00Z,26.0257,-81.7332,0.98,35.0,1111122 
NERRS,ioos:station:NOAA.NERRS:rkblhwq:1,2014-05-06T07:45:00Z,26.0257,-81.7332,1.07,35.1,1111122 
NERRS,ioos:station:NOAA.NERRS:rkblhwq:1,2014-05-06T08:45:00Z,26.0257,-81.7332,1.19,35.1,1111122 
NERRS,ioos:station:NOAA.NERRS:rkblhwq:1,2014-05-06T09:45:00Z,26.0257,-81.7332,1.31,35.3,1111122 
NERRS,ioos:station:NOAA.NERRS:rkblhwq:1,2014-05-06T10:45:00Z,26.0257,-81.7332,1.43,35.2,1111122 
NERRS,ioos:station:NOAA.NERRS:rkblhwq:1,2014-05-06T11:45:00Z,26.0257,-81.7332,1.52,35.2,1111122 
NERRS,ioos:station:NOAA.NERRS:rkblhwq:1,2014-05-06T12:45:00Z,26.0257,-81.7332,1.54,35.2,1111122 
NERRS,ioos:station:NOAA.NERRS:rkblhwq:1,2014-05-06T13:45:00Z,26.0257,-81.7332,1.48,35.2,1111122 
NERRS,ioos:station:NOAA.NERRS:rkblhwq:1,2014-05-06T14:45:00Z,26.0257,-81.7332,1.41,35.2,1111122 
NERRS,ioos:station:NOAA.NERRS:rkblhwq:1,2014-05-06T15:45:00Z,26.0257,-81.7332,1.35,35.2,1111122 
NERRS,ioos:station:NOAA.NERRS:rkblhwq:1,2014-05-06T16:45:00Z,26.0257,-81.7332,1.3,35.0,1111122 
NERRS,ioos:station:NOAA.NERRS:rkblhwq:1,2014-05-06T17:45:00Z,26.0257,-81.7332,1.28,35.1,1111122 
NERRS,ioos:station:NOAA.NERRS:rkblhwq:1,2014-05-06T20:45:00Z,26.0257,-81.7332,1.43,35.2,1111122 
NERRS,ioos:station:NOAA.NERRS:rkblhwq:1,2014-05-06T22:45:00Z,26.0257,-81.7332,1.52,35.2,1111122 
NERRS,ioos:station:NOAA.NERRS:rkblhwq:1,2014-05-06T23:45:00Z,26.0257,-81.7332,1.53,35.2,1111122 
NERRS,ioos:station:NOAA.NERRS:rkblhwq:1,2014-05-07T00:45:00Z,26.0257,-81.7332,1.49,35.2,1111122 
NERRS,ioos:station:NOAA.NERRS:rkblhwq:1,2014-05-07T01:45:00Z,26.0257,-81.7332,1.41,35.2,1111122 
NERRS,ioos:station:NOAA.NERRS:rkblhwq:1,2014-05-07T02:45:00Z,26.0257,-81.7332,1.32,35.2,1111122 
NERRS,ioos:station:NOAA.NERRS:rkblhwq:1,2014-05-07T03:45:00Z,26.0257,-81.7332,1.23,35.2,1111122 
NERRS,ioos:station:NOAA.NERRS:rkblhwq:1,2014-05-07T04:45:00Z,26.0257,-81.7332,1.14,35.4,1111122 
NERRS,ioos:station:NOAA.NERRS:rkblhwq:1,2014-05-07T06:45:00Z,26.0257,-81.7332,0.99,35.4,1111122 
NERRS,ioos:station:NOAA.NERRS:rkblhwq:1,2014-05-07T07:45:00Z,26.0257,-81.7332,1.03,35.1,1111122 
NERRS,ioos:station:NOAA.NERRS:rkblhwq:1,2014-05-07T08:45:00Z,26.0257,-81.7332,1.13,35.2,1111122 
NERRS,ioos:station:NOAA.NERRS:rkblhwq:1,2014-05-07T09:45:00Z,26.0257,-81.7332,1.26,35.3,1111122 
NERRS,ioos:station:NOAA.NERRS:rkblhwq:1,2014-05-07T11:45:00Z,26.0257,-81.7332,1.51,35.3,1111122 
NERRS,ioos:station:NOAA.NERRS:rkblhwq:1,2014-05-07T12:45:00Z,26.0257,-81.7332,1.59,35.3,1111122 
NERRS,ioos:station:NOAA.NERRS:rkblhwq:1,2014-05-07T13:45:00Z,26.0257,-81.7332,1.61,35.3,1111122 
NERRS,ioos:station:NOAA.NERRS:rkblhwq:1,2014-05-07T14:45:00Z,26.0257,-81.7332,1.56,35.3,1111122 
NERRS,ioos:station:NOAA.NERRS:rkblhwq:1,2014-05-07T15:45:00Z,26.0257,-81.7332,1.48,35.4,1111122 
NERRS,ioos:station:NOAA.NERRS:rkblhwq:1,2014-05-07T16:45:00Z,26.0257,-81.7332,1.39,35.4,1111122 
NERRS,ioos:station:NOAA.NERRS:rkblhwq:1,2014-05-07T18:45:00Z,26.0257,-81.7332,1.28,33.5,1111122 
NERRS,ioos:station:NOAA.NERRS:rkblhwq:1,2014-05-07T19:45:00Z,26.0257,-81.7332,1.3,34.0,1111122 
NERRS,ioos:station:NOAA.NERRS:rkblhwq:1,2014-05-07T20:45:00Z,26.0257,-81.7332,1.36,34.7,1111122 
NERRS,ioos:station:NOAA.NERRS:rkblhwq:1,2014-05-07T22:45:00Z,26.0257,-81.7332,1.48,35.2,1111122 
NERRS,ioos:station:NOAA.NERRS:rkblhwq:1,2014-05-08T00:45:00Z,26.0257,-81.7332,1.54,35.4,1111122 
NERRS,ioos:station:NOAA.NERRS:rkblhwq:1,2014-05-08T01:45:00Z,26.0257,-81.7332,1.53,35.6,1111122 
NERRS,ioos:station:NOAA.NERRS:rkblhwq:1,2014-05-08T02:45:00Z,26.0257,-81.7332,1.46,35.7,1111122 
NERRS,ioos:station:NOAA.NERRS:rkblhwq:1,2014-05-08T03:45:00Z,26.0257,-81.7332,1.35,35.9,1111122 
NERRS,ioos:station:NOAA.NERRS:rkblhwq:1,2014-05-08T04:45:00Z,26.0257,-81.7332,1.23,35.9,1111122 
NERRS,ioos:station:NOAA.NERRS:rkblhwq:1,2014-05-08T05:45:00Z,26.0257,-81.7332,1.11,36.4,1111122 
NERRS,ioos:station:NOAA.NERRS:rkblhwq:1,2014-05-08T06:45:00Z,26.0257,-81.7332,1.0,36.4,1111122 
NERRS,ioos:station:NOAA.NERRS:rkblhwq:1,2014-05-08T08:45:00Z,26.0257,-81.7332,1.0,36.3,1111122 
NERRS,ioos:station:NOAA.NERRS:rkblhwq:1,2014-05-08T09:45:00Z,26.0257,-81.7332,1.12,36.4,1111122 
NERRS,ioos:station:NOAA.NERRS:rkblhwq:1,2014-05-08T10:45:00Z,26.0257,-81.7332,1.25,36.6,1111122 
NERRS,ioos:station:NOAA.NERRS:rkblhwq:1,2014-05-08T11:45:00Z,26.0257,-81.7332,1.38,36.6,1111122 
NERRS,ioos:station:NOAA.NERRS:rkblhwq:1,2014-05-08T12:45:00Z,26.0257,-81.7332,1.49,36.6,1111122 
NERRS,ioos:station:NOAA.NERRS:rkblhwq:1,2014-05-08T13:45:00Z,26.0257,-81.7332,1.57,36.6,1111122 
NERRS,ioos:station:NOAA.NERRS:rkblhwq:1,2014-05-08T14:45:00Z,26.0257,-81.7332,1.58,36.7,1111122 
NERRS,ioos:station:NOAA.NERRS:rkblhwq:1,2014-05-08T16:45:00Z,26.0257,-81.7332,1.43,36.7,1111122 
NERRS,ioos:station:NOAA.NERRS:rkblhwq:1,2014-05-08T17:45:00Z,26.0257,-81.7332,1.34,36.7,1111122 
NERRS,ioos:station:NOAA.NERRS:rkblhwq:1,2014-05-08T19:45:00Z,26.0257,-81.7332,1.2,36.6,1111122 
NERRS,ioos:station:NOAA.NERRS:rkblhwq:1,2014-05-08T20:45:00Z,26.0257,-81.7332,1.21,36.5,1111122 
NERRS,ioos:station:NOAA.NERRS:rkblhwq:1,2014-05-08T22:45:00Z,26.0257,-81.7332,1.38,36.7,1111122 
NERRS,ioos:station:NOAA.NERRS:rkblhwq:1,2014-05-09T00:45:00Z,26.0257,-81.7332,1.53,36.7,1111122 
NERRS,ioos:station:NOAA.NERRS:rkblhwq:1,2014-05-09T01:45:00Z,26.0257,-81.7332,1.57,36.7,1111122 
NERRS,ioos:station:NOAA.NERRS:rkblhwq:1,2014-05-09T02:45:00Z,26.0257,-81.7332,1.53,36.7,1111122 
NERRS,ioos:station:NOAA.NERRS:rkblhwq:1,2014-05-09T03:45:00Z,26.0257,-81.7332,1.45,36.7,1111122 
NERRS,ioos:station:NOAA.NERRS:rkblhwq:1,2014-05-09T04:45:00Z,26.0257,-81.7332,1.35,36.7,1111122 
NERRS,ioos:station:NOAA.NERRS:rkblhwq:1,2014-05-09T06:45:00Z,26.0257,-81.7332,1.11,36.9,1111122 
NERRS,ioos:station:NOAA.NERRS:rkblhwq:1,2014-05-09T07:45:00Z,26.0257,-81.7332,1.02,36.9,1111122 
NERRS,ioos:station:NOAA.NERRS:rkblhwq:1,2014-05-09T08:45:00Z,26.0257,-81.7332,0.98,36.9,1111122 
NERRS,ioos:station:NOAA.NERRS:rkblhwq:1,2014-05-09T09:45:00Z,26.0257,-81.7332,1.04,36.7,1111122 
NERRS,ioos:station:NOAA.NERRS:rkblhwq:1,2014-05-09T10:45:00Z,26.0257,-81.7332,1.16,36.7,1111122 
NERRS,ioos:station:NOAA.NERRS:rkblhwq:1,2014-05-09T11:45:00Z,26.0257,-81.7332,1.3,36.8,1111122 
NERRS,ioos:station:NOAA.NERRS:rkblhwq:1,2014-05-09T12:45:00Z,26.0257,-81.7332,1.44,36.5,1111122 
NERRS,ioos:station:NOAA.NERRS:rkblhwq:1,2014-05-09T13:45:00Z,26.0257,-81.7332,1.54,36.5,1111122 
NERRS,ioos:station:NOAA.NERRS:rkblhwq:1,2014-05-09T14:45:00Z,26.0257,-81.7332,1.62,36.4,1111122 
NERRS,ioos:station:NOAA.NERRS:rkblhwq:1,2014-05-09T16:45:00Z,26.0257,-81.7332,1.5,36.4,1111122 
NERRS,ioos:station:NOAA.NERRS:rkblhwq:1,2014-05-09T17:45:00Z,26.0257,-81.7332,1.41,36.5,1111122 
NERRS,ioos:station:NOAA.NERRS:rkblhwq:1,2014-05-09T18:45:00Z,26.0257,-81.7332,1.3,36.5,1111122 
NERRS,ioos:station:NOAA.NERRS:rkblhwq:1,2014-05-09T20:45:00Z,26.0257,-81.7332,1.13,36.3,1111122 
NERRS,ioos:station:NOAA.NERRS:rkblhwq:1,2014-05-09T21:45:00Z,26.0257,-81.7332,1.12,36.4,1111122 
NERRS,ioos:station:NOAA.NERRS:rkblhwq:1,2014-05-09T22:45:00Z,26.0257,-81.7332,1.19,36.4,1111122 
NERRS,ioos:station:NOAA.NERRS:rkblhwq:1,2014-05-09T23:45:00Z,26.0257,-81.7332,1.29,36.4,1111122 
NERRS,ioos:station:NOAA.NERRS:rkblhwq:1,2014-05-10T00:45:00Z,26.0257,-81.7332,1.4,36.4,1111122 
NERRS,ioos:station:NOAA.NERRS:rkblhwq:1,2014-05-10T01:45:00Z,26.0257,-81.7332,1.5,36.4,1111122 
NERRS,ioos:station:NOAA.NERRS:rkblhwq:1,2014-05-10T02:45:00Z,26.0257,-81.7332,1.56,36.4,1111122 
NERRS,ioos:station:NOAA.NERRS:rkblhwq:1,2014-05-10T03:45:00Z,26.0257,-81.7332,1.54,36.7,1111122 
NERRS,ioos:station:NOAA.NERRS:rkblhwq:1,2014-05-10T04:45:00Z,26.0257,-81.7332,1.46,36.8,1111122 
NERRS,ioos:station:NOAA.NERRS:rkblhwq:1,2014-05-10T05:45:00Z,26.0257,-81.7332,1.34,36.9,1111122 
NERRS,ioos:station:NOAA.NERRS:rkblhwq:1,2014-05-10T06:45:00Z,26.0257,-81.7332,1.22,36.8,1111122 
NERRS,ioos:station:NOAA.NERRS:rkblhwq:1,2014-05-10T07:45:00Z,26.0257,-81.7332,1.12,36.9,1111122 
NERRS,ioos:station:NOAA.NERRS:rkblhwq:1,2014-05-10T08:45:00Z,26.0257,-81.7332,1.05,36.9,1111122 
NERRS,ioos:station:NOAA.NERRS:rkblhwq:1,2014-05-10T09:45:00Z,26.0257,-81.7332,1.09,36.7,1111122 
NERRS,ioos:station:NOAA.NERRS:rkblhwq:1,2014-05-10T10:45:00Z,26.0257,-81.7332,1.19,36.8,1111122 
NERRS,ioos:station:NOAA.NERRS:rkblhwq:1,2014-05-10T11:45:00Z,26.0257,-81.7332,1.32,36.8,1111122 
NERRS,ioos:station:NOAA.NERRS:rkblhwq:1,2014-05-10T12:45:00Z,26.0257,-81.7332,1.45,36.8,1111122 
NERRS,ioos:station:NOAA.NERRS:rkblhwq:1,2014-05-10T13:45:00Z,26.0257,-81.7332,1.56,36.8,1111122 
NERRS,ioos:station:NOAA.NERRS:rkblhwq:1,2014-05-10T14:45:00Z,26.0257,-81.7332,1.66,36.7,1111122 
NERRS,ioos:station:NOAA.NERRS:rkblhwq:1,2014-05-10T15:45:00Z,26.0257,-81.7332,1.71,36.7,1111122 
NERRS,ioos:station:NOAA.NERRS:rkblhwq:1,2014-05-10T17:45:00Z,26.0257,-81.7332,1.53,36.7,1111122 
NERRS,ioos:station:NOAA.NERRS:rkblhwq:1,2014-05-10T18:45:00Z,26.0257,-81.7332,1.39,36.8,1111122 
NERRS,ioos:station:NOAA.NERRS:rkblhwq:1,2014-05-10T20:45:00Z,26.0257,-81.7332,1.14,36.8,1111122 
NERRS,ioos:station:NOAA.NERRS:rkblhwq:1,2014-05-10T21:45:00Z,26.0257,-81.7332,1.09,36.8,1111122 
NERRS,ioos:station:NOAA.NERRS:rkblhwq:1,2014-05-10T22:45:00Z,26.0257,-81.7332,1.11,36.7,1111122 
NERRS,ioos:station:NOAA.NERRS:rkblhwq:1,2014-05-11T00:45:00Z,26.0257,-81.7332,1.29,36.7,1111122 
NERRS,ioos:station:NOAA.NERRS:rkblhwq:1,2014-05-11T01:45:00Z,26.0257,-81.7332,1.42,36.8,1111122 
NERRS,ioos:station:NOAA.NERRS:rkblhwq:1,2014-05-11T02:45:00Z,26.0257,-81.7332,1.52,36.8,1111122 
NERRS,ioos:station:NOAA.NERRS:rkblhwq:1,2014-05-11T03:45:00Z,26.0257,-81.7332,1.58,36.9,1111122 
NERRS,ioos:station:NOAA.NERRS:rkblhwq:1,2014-05-11T04:45:00Z,26.0257,-81.7332,1.57,36.9,1111122 
NERRS,ioos:station:NOAA.NERRS:rkblhwq:1,2014-05-11T06:45:00Z,26.0257,-81.7332,1.35,36.9,1111122 
NERRS,ioos:station:NOAA.NERRS:rkblhwq:1,2014-05-11T07:45:00Z,26.0257,-81.7332,1.21,37.0,1111122 
NERRS,ioos:station:NOAA.NERRS:rkblhwq:1,2014-05-11T08:45:00Z,26.0257,-81.7332,1.11,37.1,1111122 
NERRS,ioos:station:NOAA.NERRS:rkblhwq:1,2014-05-11T09:45:00Z,26.0257,-81.7332,1.04,37.7,1111122 
NERRS,ioos:station:NOAA.NERRS:rkblhwq:1,2014-05-11T11:45:00Z,26.0257,-81.7332,1.2,38.1,1111122 
NERRS,ioos:station:NOAA.NERRS:rkblhwq:1,2014-05-11T12:45:00Z,26.0257,-81.7332,1.34,37.8,1111122 
NERRS,ioos:station:NOAA.NERRS:rkblhwq:1,2014-05-11T13:45:00Z,26.0257,-81.7332,1.48,37.8,1111122 
NERRS,ioos:station:NOAA.NERRS:rkblhwq:1,2014-05-11T14:45:00Z,26.0257,-81.7332,1.61,37.8,1111122 
NERRS,ioos:station:NOAA.NERRS:rkblhwq:1,2014-05-11T15:45:00Z,26.0257,-81.7332,1.7,37.8,1111122 
NERRS,ioos:station:NOAA.NERRS:rkblhwq:1,2014-05-11T16:45:00Z,26.0257,-81.7332,1.68,37.9,1111122 
NERRS,ioos:station:NOAA.NERRS:rkblhwq:1,2014-05-11T17:45:00Z,26.0257,-81.7332,1.58,37.8,1111122 
NERRS,ioos:station:NOAA.NERRS:rkblhwq:1,2014-05-11T18:45:00Z,26.0257,-81.7332,1.45,37.9,1111122 
NERRS,ioos:station:NOAA.NERRS:rkblhwq:1,2014-05-11T19:45:00Z,26.0257,-81.7332,1.3,37.9,1111122 
NERRS,ioos:station:NOAA.NERRS:rkblhwq:1,2014-05-11T20:45:00Z,26.0257,-81.7332,1.16,38.0,1111122 
NERRS,ioos:station:NOAA.NERRS:rkblhwq:1,2014-05-11T21:45:00Z,26.0257,-81.7332,1.04,38.0,1111122 
NERRS,ioos:station:NOAA.NERRS:rkblhwq:1,2014-05-11T22:45:00Z,26.0257,-81.7332,0.96,38.2,1111122 
NERRS,ioos:station:NOAA.NERRS:rkblhwq:1,2014-05-12T00:45:00Z,26.0257,-81.7332,1.09,37.9,1111122 
NERRS,ioos:station:NOAA.NERRS:rkblhwq:1,2014-05-12T01:45:00Z,26.0257,-81.7332,1.24,38.0,1111122 
NERRS,ioos:station:NOAA.NERRS:rkblhwq:1,2014-05-12T02:45:00Z,26.0257,-81.7332,1.4,37.9,1111122 
NERRS,ioos:station:NOAA.NERRS:rkblhwq:1,2014-05-12T03:45:00Z,26.0257,-81.7332,1.53,37.9,1111122 
NERRS,ioos:station:NOAA.NERRS:rkblhwq:1,2014-05-12T04:45:00Z,26.0257,-81.7332,1.59,37.9,1111122 
NERRS,ioos:station:NOAA.NERRS:rkblhwq:1,2014-05-12T06:45:00Z,26.0257,-81.7332,1.41,37.9,1111122 
NERRS,ioos:station:NOAA.NERRS:rkblhwq:1,2014-05-12T07:45:00Z,26.0257,-81.7332,1.29,38.1,1111122 
NERRS,ioos:station:NOAA.NERRS:rkblhwq:1,2014-05-12T08:45:00Z,26.0257,-81.7332,1.18,38.0,1111122 
NERRS,ioos:station:NOAA.NERRS:rkblhwq:1,2014-05-12T09:45:00Z,26.0257,-81.7332,1.09,38.1,1111122 
NERRS,ioos:station:NOAA.NERRS:rkblhwq:1,2014-05-12T10:45:00Z,26.0257,-81.7332,1.07,37.9,1111122 
NERRS,ioos:station:NOAA.NERRS:rkblhwq:1,2014-05-12T11:45:00Z,26.0257,-81.7332,1.14,38.0,1111122 